Date String (YYYY-MM-DD hh:mm:ss) UTC,Instrument flags,absolute air pressure of the measurement (hPa),sample flow rate (lpm),inlet stack bypass flow (lpm),air temperature of the measurement (°C),ambient temperature measured by the external sensor (°C),aerosol sample conditioner tube jacket temperature (°C),OPC LED temperature (°C),internal box temperature (°C),relative humidity of the measurement (%),span deviation,mass concentration of particles derived from Lorenz-Mie calculation of OPC scattering (μg/m³),mass concentration of particles derived from Lorenz-Mie calculation of OPC scattering (μg/m³),mass concentration of particles derived from Lorenz-Mie calculation of OPC scattering (μg/m³)
DateTimeUTC,F1_M11,P_M11,Q1_M11,Q2_M11,T1_M11,T2_M11,T3_M11,T4_M11,T5_M11,U1_M11,ZSPAN_M11,X0_M11,X2_M11,X1_M11
2024-04-14 14:00:00,SystemResetWarning,0828.8,5.00,000.00,025.3,024.6,000.0,033.8,027.1,013.7,0000.0,0014.62,0004.48,0002.85
2024-04-14 14:01:00,SystemResetWarning,0828.8,5.00,000.00,025.3,024.6,000.0,033.8,027.2,013.8,0000.0,0015.26,0004.48,0002.85
2024-04-14 14:02:00,SystemResetWarning,0828.8,5.00,000.00,025.4,024.6,000.0,033.8,027.2,013.3,0000.0,0016.38,0004.51,0002.84
2024-04-14 14:03:00,SystemResetWarning,0828.8,5.00,000.00,025.4,024.6,000.0,033.8,027.2,013.0,0000.0,0016.88,0004.55,0002.84
2024-04-14 14:04:00,SystemResetWarning,0828.7,5.00,000.00,025.4,024.6,000.0,033.8,027.2,012.5,0000.0,0016.85,0004.53,0002.83
2024-04-14 14:05:00,SystemResetWarning,0828.8,5.00,000.00,025.4,024.6,000.0,033.8,027.2,013.1,0000.0,0016.79,0004.55,0002.81
2024-04-14 14:06:00,SystemResetWarning,0828.8,5.00,000.00,025.4,024.6,000.0,033.8,027.2,013.1,0000.0,0016.64,0004.56,0002.82
2024-04-14 14:07:00,SystemResetWarning,0828.8,5.00,000.00,025.4,024.7,000.0,033.8,027.2,012.5,0000.0,0016.79,0004.53,0002.83
2024-04-14 14:08:00,SystemResetWarning,0828.8,5.00,000.00,025.4,024.6,000.0,033.8,027.2,012.7,0000.0,0017.17,0004.49,0002.84
2024-04-14 14:09:00,SystemResetWarning,0828.8,5.00,000.00,025.4,024.7,000.0,033.8,027.2,013.0,0000.0,0017.24,0004.42,0002.81
2024-04-14 14:10:00,SystemResetWarning,0828.8,5.00,000.00,025.4,024.7,000.0,033.8,027.2,012.8,0000.0,0017.44,0004.44,0002.81
2024-04-14 14:11:00,SystemResetWarning,0828.7,5.01,000.00,025.4,024.7,000.0,033.8,027.3,012.4,0000.0,0015.72,0004.40,0002.79
2024-04-14 14:12:00,SystemResetWarning,0828.7,5.00,000.00,025.4,024.7,000.0,033.8,027.3,012.4,0000.0,0015.23,0004.42,0002.79
2024-04-14 14:13:00,SystemResetWarning,0828.8,4.99,000.00,025.4,024.7,000.0,033.9,027.3,012.4,0000.0,0014.91,0004.39,0002.79
2024-04-14 14:14:00,SystemResetWarning,0828.8,4.99,000.00,025.5,024.8,000.0,033.9,027.3,012.1,0000.0,0014.58,0004.34,0002.78
2024-04-14 14:15:00,SystemResetWarning,0828.8,5.01,000.00,025.5,024.8,000.0,033.9,027.3,012.2,0000.0,0015.13,0004.36,0002.77
2024-04-14 14:16:00,SystemResetWarning,0828.8,5.01,000.00,025.5,024.8,000.0,033.9,027.3,012.2,0000.0,0014.91,0004.38,0002.76
2024-04-14 14:17:00,SystemResetWarning,0828.8,4.98,000.00,025.5,024.8,000.0,033.9,027.3,012.1,0000.0,0014.76,0004.36,0002.74
2024-04-14 14:18:00,SystemResetWarning,0828.8,5.00,000.00,025.5,024.8,000.0,033.9,027.3,012.3,0000.0,0013.91,0004.34,0002.73
2024-04-14 14:19:00,SystemResetWarning,0828.9,5.01,000.00,025.5,024.8,000.0,033.9,027.3,012.3,0000.0,0013.50,0004.32,0002.73
2024-04-14 14:20:00,SystemResetWarning,0828.9,5.00,000.00,025.5,024.8,000.0,033.9,027.3,013.6,0000.0,0013.47,0004.41,0002.74
2024-04-14 14:21:00,SystemResetWarning,0828.9,5.00,000.00,025.5,024.8,000.0,033.9,027.4,013.7,0000.0,0013.13,0004.40,0002.73
2024-04-14 14:22:00,SystemResetWarning,0828.9,4.99,000.00,025.5,024.8,000.0,033.9,027.4,013.8,0000.0,0013.26,0004.42,0002.73
2024-04-14 14:23:00,SystemResetWarning,0828.9,4.99,000.00,025.5,024.8,000.0,033.9,027.4,014.4,0000.0,0013.50,0004.47,0002.75
2024-04-14 14:24:00,SystemResetWarning,0828.8,4.99,000.00,025.6,024.8,000.0,033.9,027.4,013.7,0000.0,0014.39,0004.47,0002.76
2024-04-14 14:25:00,SystemResetWarning,0828.8,5.00,000.00,025.6,024.9,000.0,033.9,027.4,013.9,0000.0,0015.23,0004.47,0002.76
2024-04-14 14:26:00,SystemResetWarning,0828.8,5.01,000.00,025.6,024.9,000.0,034.0,027.4,013.4,0000.0,0016.05,0004.49,0002.77
2024-04-14 14:27:00,SystemResetWarning,0828.8,5.01,000.00,025.6,024.9,000.0,034.0,027.4,012.1,0000.0,0016.50,0004.48,0002.78
2024-04-14 14:28:00,SystemResetWarning,0828.8,5.00,000.00,025.6,024.9,000.0,034.0,027.4,012.2,0000.0,0017.41,0004.47,0002.78
2024-04-14 14:29:00,SystemResetWarning,0828.8,5.00,000.00,025.6,024.9,000.0,034.0,027.4,012.4,0000.0,0017.47,0004.50,0002.78
2024-04-14 14:30:00,SystemResetWarning,0828.9,5.00,000.00,025.6,024.9,000.0,034.0,027.4,012.9,0000.0,0016.64,0004.51,0002.77
2024-04-14 14:31:00,SystemResetWarning,0828.8,5.00,000.00,025.6,025.0,000.0,034.0,027.4,013.2,0000.0,0016.81,0004.43,0002.76
2024-04-14 14:32:00,SystemResetWarning,0828.9,4.99,000.00,025.6,025.0,000.0,034.0,027.4,013.2,0000.0,0017.10,0004.38,0002.76
2024-04-14 14:33:00,SystemResetWarning,0828.8,5.00,000.00,025.6,025.0,000.0,034.0,027.5,012.9,0000.0,0017.22,0004.30,0002.74
2024-04-14 14:34:00,SystemResetWarning,0828.7,5.01,000.00,025.7,025.0,000.0,034.0,027.5,013.6,0000.0,0017.03,0004.20,0002.73
2024-04-14 14:35:00,SystemResetWarning,0828.7,5.00,000.00,025.7,025.0,000.0,034.0,027.5,013.6,0000.0,0015.67,0004.19,0002.70
2024-04-14 14:36:00,SystemResetWarning,0828.8,5.01,000.00,025.7,025.0,000.0,034.0,027.5,013.9,0000.0,0014.84,0004.21,0002.68
2024-04-14 14:37:00,SystemResetWarning,0828.7,5.00,000.00,025.7,025.0,000.0,034.1,027.5,013.3,0000.0,0013.99,0004.20,0002.65
2024-04-14 14:38:00,SystemResetWarning,0828.7,5.00,000.00,025.7,025.0,000.0,034.1,027.5,013.3,0000.0,0014.53,0004.22,0002.64
2024-04-14 14:39:00,SystemResetWarning,0828.7,5.00,000.00,025.7,025.0,000.0,034.1,027.5,013.2,0000.0,0014.88,0004.28,0002.65
2024-04-14 14:40:00,SystemResetWarning,0828.7,5.00,000.00,025.7,025.0,000.0,034.1,027.5,013.5,0000.0,0015.67,0004.29,0002.65
2024-04-14 14:41:00,SystemResetWarning,0828.7,4.99,000.00,025.7,025.0,000.0,034.1,027.5,013.3,0000.0,0017.29,0004.33,0002.67
2024-04-14 14:42:00,SystemResetWarning,0828.7,5.00,000.00,025.7,025.0,000.0,034.1,027.6,013.3,0000.0,0017.32,0004.35,0002.68
2024-04-14 14:43:00,SystemResetWarning,0828.7,5.00,000.00,025.8,025.1,000.0,034.1,027.6,013.5,0000.0,0017.56,0004.40,0002.69
2024-04-14 14:44:00,SystemResetWarning,0828.7,5.00,000.00,025.8,025.1,000.0,034.1,027.6,013.8,0000.0,0017.46,0004.44,0002.69
2024-04-14 14:45:00,SystemResetWarning,0828.7,4.99,000.00,025.8,025.1,000.0,034.1,027.6,014.1,0000.0,0018.86,0004.48,0002.69
2024-04-14 14:46:00,SystemResetWarning,0828.7,5.00,000.00,025.8,025.1,000.0,034.1,027.6,014.2,0000.0,0019.08,0004.49,0002.70
2024-04-14 14:47:00,SystemResetWarning,0828.7,5.00,000.00,025.8,025.1,000.0,034.2,027.6,014.8,0000.0,0020.46,0004.48,0002.72
2024-04-14 14:48:00,SystemResetWarning,0828.8,5.00,000.00,025.8,025.1,000.0,034.2,027.6,014.9,0000.0,0021.03,0004.49,0002.74
2024-04-14 14:49:00,SystemResetWarning,0828.7,5.00,000.00,025.8,025.2,000.0,034.2,027.6,014.9,0000.0,0019.99,0004.49,0002.76
2024-04-14 14:50:00,SystemResetWarning,0828.7,5.01,000.00,025.8,025.2,000.0,034.2,027.7,014.6,0000.0,0020.81,0004.43,0002.75
2024-04-14 14:51:00,SystemResetWarning,0828.7,5.00,000.00,025.8,025.2,000.0,034.2,027.7,014.5,0000.0,0022.05,0004.48,0002.76
2024-04-14 14:52:00,SystemResetWarning,0828.7,5.00,000.00,025.9,025.2,000.0,034.2,027.7,014.5,0000.0,0021.22,0004.50,0002.76
2024-04-14 14:53:00,SystemResetWarning,0828.7,5.00,000.00,025.9,025.2,000.0,034.2,027.7,014.2,0000.0,0021.78,0004.51,0002.74
2024-04-14 14:54:00,SystemResetWarning,0828.7,5.01,000.00,025.9,025.2,000.0,034.2,027.7,014.4,0000.0,0021.93,0004.52,0002.72
2024-04-14 14:55:00,SystemResetWarning,0828.7,5.00,000.00,025.9,025.2,000.0,034.2,027.7,013.8,0000.0,0022.71,0004.56,0002.73
2024-04-14 14:56:00,SystemResetWarning,0828.7,5.00,000.00,025.9,025.2,000.0,034.3,027.7,014.1,0000.0,0021.82,0004.55,0002.75
2024-04-14 14:57:00,SystemResetWarning,0828.7,5.00,000.00,025.9,025.3,000.0,034.3,027.8,014.1,0000.0,0023.70,0004.60,0002.75
2024-04-14 14:58:00,SystemResetWarning,0828.7,5.00,000.00,025.9,025.3,000.0,034.3,027.8,014.4,0000.0,0022.43,0004.60,0002.74
2024-04-14 14:59:00,SystemResetWarning,0828.7,5.00,000.00,026.0,025.4,000.0,034.3,027.8,014.2,0000.0,0022.03,0004.57,0002.73
